Location: Asheville, NC
(35.6000°N, 82.5500°W)
Time: 09:15:51
(UTC-04:00)

Vanguard 1 Rocket - Pass Details

Date: 09 December 2017
Orbit: 652 x 4225 km, 34.3° (Epoch: 16 July)

Event Time Altitude Azimuth Distance (km) Brightness Sun altitude
Rises 22:00:44 0° 278° (W) 6,220 12.2 -56.7°
Reaches altitude 10° 22:04:06 10° 278° (W) 5,575 11.7 -57.4°
Enters shadow 22:18:05 64° 263° (W) 3,961 10.3 -60.1°
